Regional Weather Roundup
Issued by NWS Jackson, KY

Home | Current Version | Previous Version | Text Only | Print | Product List | Glossary On
Versions: 1 2 3 4 5 6 7 8 9 10 11 12 13 14 15 16 17 18 19 20 21 22 23 24 25 26 27 28 29 30 31 32 33 34 35 36 37 38 39 40 41 42 43 44 45 46 47 48 49 50
000
ASUS43 KJKL 251219
RWRJKL

EAST KENTUCKY HOURLY WEATHER ROUNDUP
NATIONAL WEATHER SERVICE JACKSON KY
800 AM EDT FRI JUL 25 2014

NOTE: "FAIR" INDICATES FEW OR NO CLOUDS BELOW 12,000 FEET WITH
NO SIGNIFICANT WEATHER AND/OR OBSTRUCTIONS TO VISIBILITY.

* THESE REPORTS ARE NOT UNDER NWS QUALITY CONTROL AND MAY NOT
  REPORT WEATHER SUCH AS PRECIPITATION AND FOG.

KYZ079-080-083-085-087-088-110-112-115-119-120-251300
...EASTERN KENTUCKY...

CITY           SKY/WX    TMP DP  RH WIND       PRES   REMARKS
JACKSON        FOG       60  59  96 CALM      30.11R VSB<1/4
6HR MIN TEMP:  59; 6HR MAX TEMP:  61;

LONDON         CLOUDY    61  59  93 SE5       30.11R FOG
6HR MIN TEMP:  59; 6HR MAX TEMP:  62;

SOMERSET*      FOG       59  59 100 CALM      30.10F VSB<1/4
MONTICELLO*    FOG       61  61 100 CALM      30.11R VSB<1/4
6HR MIN TEMP:  57; 6HR MAX TEMP:  61;

WILLIAMSBURG*  CLOUDY    59  59 100 CALM      30.11R
MIDDLESBORO*   CLOUDY    62  59  91 NW3       30.11R
6HR MIN TEMP:  61; 6HR MAX TEMP:  62;

HARLAN APT*    CLOUDY    61  59  94 MISG      30.12R
HAZARD APT*    FOG       63  63 100 CALM      30.11R VSB 1/4
BLACK MTN*       N/A     54  54 100 S2          N/A
PIKEVILLE APT* CLOUDY    61  61 100 CALM      30.12R
BIG SANDY*     FOG       62  62 100 CALM      30.12R VSB 3/4
6HR MIN TEMP:  60; 6HR MAX TEMP:  62;

MOREHEAD APT*    N/A     63  57  82 CALM      30.15R
ASHLAND*       MOSUNNY   61  54  77 CALM      30.10R
$$

KYZ035-036-041-042-044-050-067-078-099-251300
...CENTRAL KENTUCKY...

CITY           SKY/WX    TMP DP  RH WIND       PRES   REMARKS
MT STERLING*   SUNNY     59  55  88 CALM      30.13R
FLEMING/MASON* SUNNY     59  55  88 N3        30.13R
DANVILLE*      MOSUNNY   57  55  94 CALM      30.11R
RICHMOND*      CLOUDY    57  55  94 CALM      30.10R VSB<1/4
LEXINGTON      SUNNY     62  57  83 CALM      30.12R
6HR MIN TEMP:  55; 6HR MAX TEMP:  62;

FRANKFORT      SUNNY     58  54  86 CALM      30.10R
6HR MIN TEMP:  53; 6HR MAX TEMP:  61;

$$

KYZ091>093-OHZ055-061-077-WVZ005-015-034-035-042-251300
...SOUTHERN OHIO/WEST VIRGINIA...

CITY           SKY/WX    TMP DP  RH WIND       PRES   REMARKS
COVINGTON      MOSUNNY   62  55  77 CALM      30.12R
COLUMBUS       MOSUNNY   60  51  72 N3        30.12R
DAYTON         MOSUNNY   59  53  80 CALM      30.14R
WILMINGTON     SUNNY     57  53  86 SE3       30.10F
HUNTINGTON     FOG       58  58 100 CALM      30.11R VSB<1/4
CHARLESTON     PTSUNNY   64  61  90 CALM      30.11R
PINEVILLE*     CLOUDY    64  61  91 MISG      30.17R
BECKLEY        CLOUDY    58  55  90 E5        30.14R
BLUEFIELD      PTSUNNY   61  56  83 CALM      30.15R
$$

VAZ002-007-008-TNZ017-027-036-066-071-251300
...SOUTHWEST VIRGINIA/EAST TENNESSEE...

CITY           SKY/WX    TMP DP  RH WIND       PRES   REMARKS
WISE*          FOG       59  59 100 CALM      30.15R VSB 3/4
JONESVILLE*    FOG       57  57 100 CALM      30.13R VSB<1/4
ABINGDON*      PTSUNNY   62  61  98 E5        30.11S FOG
BRISTOL        MOSUNNY   63  59  87 CALM      30.09R
KNOXVILLE      PTSUNNY   65  62  90 N5        30.08R
OAK RIDGE      SUNNY     64  61  90 CALM      30.10R
CROSSVILLE     FOG       57  56  96 CALM      30.13R VSB<1/4
NASHVILLE      MOSUNNY   63  60  90 S3        30.07F
$$

...KEY TO REMARKS...
VSB - VISIBILITY IN MILES
WCI - WIND CHILL INDEX
HX  - HEAT INDEX

$$


USA.gov is the U.S. government's official web portal to all federal, state and local government web resources and services.